Skip to main content Skip to accessibility
This website is not compatible with your web browser. You should install a newer browser. If you live in Jersey and need help upgrading call the States of Jersey web team on 440099.
Homegov.je

Information and public services for the Island of Jersey

L'înformâtion et les sèrvices publyis pouor I'Île dé Jèrri

  • Choose the service you want to log in to:

  • gov.je

    Update your notification preferences

  • one.gov.je

    Access government services

  • CAESAR

    Clear goods through customs or claim relief

  • Talentlink

    View or update your States of Jersey job application

Local METARs

METAR EGJJ 121620Z 28014KT 9999 VCSH FEW027 SCT037 10/04 Q1030

METAR EGJB 121620Z 33008KT 290V010 9999 VCSH SCT016 BKN035 08/04 Q1030

METAR EGJA 121620Z 30011KT 9999 VCSH FEW018CB 08/04 Q1030

METAR LFRD 121630Z AUTO 33010KT 300V360 CAVOK 10/02 Q1031 NOSIG

METAR LFRC 121630Z AUTO 30009KT 270V330 9999 FEW017 OVC098 08/04 Q1030 TEMPO 31018G28KT 4000 SHRAGS BKN010TCU

 

 

 

​Apologies to the disruption to normal service. Commercial Aviation Services are available from the Jersey Met Forecaster 01534 448765.

Times are in Greenwich Mean Time (GMT) and not British Summer Time (BST). They will be one hour different during BST.

Back to top
rating button